This demonstration page uses our WeatherBlox Daily Observations layout. Learn more.

Left ArrowRight Arrow

47.50024, -111.30081

Hourly Observations for February 28, 2017

Temp ( °F °C ) Dew Point ( °F °C ) Humidity (%) Winds ( mph kmh ) Pressure ( in mb ) Visibility ( mi km ) Precip ( " mm )
12:53 am 00:53 Mostly Cloudy 24 -4.4 16 -8.9 71 71 SSW 14 22 29.72 1007 10 16 0.00 0.00
1:53 am 01:53 Clear 23 -5 15 -9.4 72 72 SSW 13 20 29.71 1006 10 16 0.00 0.00
2:53 am 02:53 Mostly Clear 23 -5 14 -10 68 68 SSW 13 20 29.71 1006 10 16 0.00 0.00
3:53 am 03:53 Mostly Clear 21 -6.1 13 -10.6 71 71 SSW 9 15 29.71 1006 10 16 0.00 0.00
4:53 am 04:53 Clear 20 -6.7 12 -11.1 71 71 S 8 13 29.71 1006 10 16 0.00 0.00
5:53 am 05:53 Clear 20 -6.7 11 -11.7 68 68 S 7 11 29.73 1007 10 16 0.00 0.00
6:53 am 06:53 Partly Cloudy 18 -7.8 10 -12.2 71 71 S 7 11 29.75 1007 10 16 0.00 0.00
7:53 am 07:53 Mostly Cloudy 23 -5 13 -10.6 65 65 SSW 10 17 29.74 1007 10 16 0.00 0.00
8:53 am 08:53 Mostly Sunny 25 -3.9 14 -10 63 63 SSW 12 19 29.75 1007 10 16 0.00 0.00
9:53 am 09:53 Sunny 23 -5 15 -9.4 72 72 NW 7 11 29.77 1008 10 16 0.00 0.00
10:53 am 10:53 Mostly Sunny 22 -5.6 14 -10 71 71 NW 7 11 29.79 1009 10 16 0.00 0.00
11:53 am 11:53 Sunny 26 -3.3 17 -8.3 69 69 NNW 9 15 29.79 1009 10 16 0.00 0.00
12:53 pm 12:53 Mostly Cloudy 24 -4.4 17 -8.3 75 75 NNW 13 20 29.82 1010 10 16 0.00 0.00
1:53 pm 13:53 Mostly Sunny 24 -4.4 17 -8.3 75 75 NNW 12 19 29.85 1011 10 16 0.00 0.03
2:53 pm 14:53 Sunny 27 -2.8 17 -8.3 66 66 NW 12 19 29.88 1012 10 16 0.00 0.00
3:21 pm 15:21 Mostly Cloudy 28 -2.2 18 -7.8 66 66 N 12 19 29.85 1011 10 16 0.00 0.00
3:53 pm 15:53 Mostly Cloudy 26 -3.3 18 -7.8 71 71 N 13 20 29.92 1013 10 16 0.00 0.00
4:23 pm 16:23 Partly Cloudy 24 -4.4 17 -8.3 75 75 N 12 19 29.94 1014 10 16 0.00 0.00
4:53 pm 16:53 Sunny 22 -5.6 16 -8.9 78 78 N 9 15 29.98 1015 10 16 0.00 0.00
5:53 pm 17:53 Sunny 19 -7.2 13 -10.6 77 77 NNE 7 11 30.02 1017 10 16 0.00 0.00
6:29 pm 18:29 Mostly Cloudy 17 -8.3 13 -10.6 84 84 Calm 30.09 1019 10 16 0.00 0.00
6:53 pm 18:53 Cloudy 18 -7.8 14 -10 84 84 NNE 6 9 30.07 1018 10 16 0.00 0.00
7:43 pm 19:43 Partly Cloudy 17 -8.3 12 -11.1 80 80 Calm 30.18 1022 10 16 0.00 0.00
7:53 pm 19:53 Clear 17 -8.3 12 -11.1 80 80 Calm 30.08 1019 10 16 0.00 0.00
8:53 pm 20:53 Clear 9 -12.8 6 -14.4 88 88 SW 8 13 30.11 1020 10 16 0.00 0.00
9:53 pm 21:53 Clear 11 -11.7 7 -13.9 84 84 SSW 13 20 30.13 1020 10 16 0.00 0.00
10:53 pm 22:53 Clear 14 -10 10 -12.2 84 84 SW 14 22 30.13 1020 10 16 0.00 0.00
11:53 pm 23:53 Clear 15 -9.4 8 -13.3 74 74 SW 14 22 30.11 1020 10 16 0.00 0.00

Powered by AerisWeather